When you browse on this site, cookies collect data to enhance your experience and personalize the content and advertising you see.
Visit our Privacy Policy to learn more. By continuing to use the site, you agree to this use of cookies and data.
  • In Romania
  • List of Countries
  • For 7 days
  • Water Temperature
  • Weather Map
  • Weather Widgets
  • user-avatar
    Login

    Hourly Weather Kanye

    Today, 4 June, Thursday

    Time Temperature Precipitation Wind Pressure Humidity
    00:00 +12°C° 0 mm 1 mps 653 mmHg 45%
    01:00 +12°C° 0 mm 1 mps 653 mmHg 47%
    02:00 +10°C° 0 mm 2 mps 653 mmHg 50%
    03:00 +11°C° 0 mm 1 mps 653 mmHg 52%
    04:00 +10°C° 0 mm 1 mps 652 mmHg 54%
    05:00 +10°C° 0 mm 1 mps 652 mmHg 57%
    06:00 +11°C° 0 mm 1 mps 653 mmHg 53%
    07:00 +10°C° 0 mm 2 mps 653 mmHg 50%
    08:00 +13°C° 0 mm 2 mps 655 mmHg 45%
    09:00 +16°C° 0 mm 2 mps 655 mmHg 39%
    10:00 +18°C° 0 mm 3 mps 656 mmHg 33%
    11:00 +20°C° 0 mm 3 mps 656 mmHg 27%
    12:00 +21°C° 0 mm 4 mps 656 mmHg 24%
    13:00 +22°C° 0 mm 4 mps 655 mmHg 21%
    14:00 +23°C° 0 mm 4 mps 656 mmHg 20%
    15:00 +22°C° 0 mm 4 mps 655 mmHg 21%
    16:00 +21°C° 0 mm 3 mps 655 mmHg 22%
    17:00 +20°C° 0 mm 3 mps 654 mmHg 24%
    18:00 +18°C° 0 mm 3 mps 654 mmHg 28%
    19:00 +16°C° 0 mm 2 mps 654 mmHg 32%
    20:00 +14°C° 0 mm 2 mps 654 mmHg 36%
    21:00 +13°C° 0 mm 2 mps 654 mmHg 39%
    22:00 +13°C° 0 mm 2 mps 654 mmHg 41%
    23:00 +12°C° 0 mm 2 mps 654 mmHg 43%

    Tomorrow, 5 June, Friday

    Time Temperature Precipitation Wind Pressure Humidity
    00:00 +12°C° 0 mm 2 mps 654 mmHg 45%
    01:00 +10°C° 0 mm 2 mps 654 mmHg 47%
    02:00 +10°C° 0 mm 2 mps 654 mmHg 49%
    03:00 +9°C° 0 mm 2 mps 654 mmHg 52%
    04:00 +9°C° 0 mm 2 mps 654 mmHg 55%
    05:00 +8°C° 0 mm 2 mps 654 mmHg 58%
    06:00 +8°C° 0 mm 2 mps 654 mmHg 59%
    07:00 +9°C° 0 mm 2 mps 655 mmHg 59%
    08:00 +9°C° 0 mm 2 mps 655 mmHg 60%
    09:00 +12°C° 0 mm 3 mps 656 mmHg 54%
    10:00 +16°C° 0 mm 3 mps 656 mmHg 47%
    11:00 +18°C° 0 mm 4 mps 657 mmHg 41%
    12:00 +19°C° 0 mm 3 mps 657 mmHg 36%
    13:00 +20°C° 0 mm 3 mps 656 mmHg 30%
    14:00 +21°C° 0 mm 2 mps 656 mmHg 25%
    15:00 +20°C° 0 mm 2 mps 656 mmHg 26%
    16:00 +20°C° 0 mm 2 mps 655 mmHg 27%
    17:00 +20°C° 0 mm 1 mps 655 mmHg 27%
    18:00 +18°C° 0 mm 1 mps 655 mmHg 32%
    19:00 +15°C° 0 mm 1 mps 655 mmHg 37%
    20:00 +13°C° 0 mm 1 mps 654 mmHg 42%
    21:00 +12°C° 0 mm 1 mps 654 mmHg 44%
    22:00 +12°C° 0 mm 1 mps 654 mmHg 46%
    23:00 +11°C° 0 mm 1 mps 654 mmHg 49%

    Day after tomorrow, 6 June, Saturday

    Time Temperature Precipitation Wind Pressure Humidity
    00:00 +11°C° 0 mm 1 mps 654 mmHg 52%
    01:00 +10°C° 0 mm 1 mps 654 mmHg 56%
    02:00 +9°C° 0 mm 0 mps 653 mmHg 60%
    03:00 +8°C° 0 mm 0 mps 654 mmHg 61%
    04:00 +8°C° 0 mm 0 mps 654 mmHg 62%
    05:00 +7°C° 0 mm 0 mps 654 mmHg 63%
    06:00 +9°C° 0 mm 1 mps 654 mmHg 58%
    07:00 +11°C° 0 mm 1 mps 655 mmHg 53%
    08:00 +12°C° 0 mm 2 mps 656 mmHg 48%
    09:00 +14°C° 0 mm 2 mps 656 mmHg 42%
    10:00 +17°C° 0 mm 2 mps 657 mmHg 35%
    11:00 +19°C° 0 mm 2 mps 658 mmHg 29%
    12:00 +20°C° 0 mm 2 mps 657 mmHg 25%
    13:00 +21°C° 0 mm 2 mps 657 mmHg 22%
    14:00 +22°C° 0 mm 3 mps 656 mmHg 18%
    15:00 +21°C° 0 mm 2 mps 656 mmHg 19%
    16:00 +21°C° 0 mm 2 mps 656 mmHg 21%
    17:00 +20°C° 0 mm 2 mps 655 mmHg 22%
    18:00 +18°C° 0 mm 2 mps 655 mmHg 28%
    19:00 +15°C° 0 mm 2 mps 655 mmHg 33%
    20:00 +13°C° 0 mm 2 mps 655 mmHg 39%
    21:00 +13°C° 0 mm 2 mps 655 mmHg 42%
    22:00 +12°C° 0 mm 2 mps 655 mmHg 45%
    23:00 +12°C° 0 mm 2 mps 655 mmHg 48%

    7 June, Sunday

    Time Temperature Precipitation Wind Pressure Humidity
    00:00 +10°C° 0 mm 2 mps 655 mmHg 52%
    01:00 +11°C° 0 mm 1 mps 654 mmHg 55%
    02:00 +10°C° 0 mm 1 mps 654 mmHg 58%
    03:00 +9°C° 0 mm 1 mps 654 mmHg 61%
    04:00 +9°C° 0 mm 1 mps 654 mmHg 63%
    05:00 +7°C° 0 mm 0 mps 654 mmHg 66%
    06:00 +9°C° 0 mm 1 mps 654 mmHg 62%
    07:00 +10°C° 0 mm 1 mps 655 mmHg 58%
    08:00 +11°C° 0 mm 1 mps 656 mmHg 54%
    09:00 +14°C° 0 mm 2 mps 656 mmHg 47%
    10:00 +16°C° 0 mm 2 mps 657 mmHg 40%
    11:00 +19°C° 0 mm 2 mps 658 mmHg 32%
    12:00 +20°C° 0 mm 2 mps 657 mmHg 29%
    13:00 +21°C° 0 mm 2 mps 657 mmHg 25%
    14:00 +23°C° 0 mm 2 mps 656 mmHg 21%
    15:00 +21°C° 0 mm 2 mps 656 mmHg 22%
    16:00 +20°C° 0 mm 2 mps 655 mmHg 23%
    17:00 +20°C° 0 mm 2 mps 655 mmHg 24%
    18:00 +17°C° 0 mm 2 mps 655 mmHg 28%
    19:00 +15°C° 0 mm 2 mps 654 mmHg 33%
    20:00 +13°C° 0 mm 2 mps 654 mmHg 37%
    21:00 +13°C° 0 mm 2 mps 654 mmHg 39%
    22:00 +12°C° 0 mm 2 mps 654 mmHg 41%
    23:00 +12°C° 0 mm 2 mps 654 mmHg 43%

    8 June, Monday

    Time Temperature Precipitation Wind Pressure Humidity
    00:00 +11°C° 0 mm 1 mps 654 mmHg 45%
    01:00 +11°C° 0 mm 1 mps 653 mmHg 47%
    02:00 +10°C° 0 mm 1 mps 653 mmHg 49%
    03:00 +10°C° 0 mm 1 mps 653 mmHg 52%
    04:00 +9°C° 0 mm 1 mps 653 mmHg 56%
    05:00 +7°C° 0 mm 0 mps 652 mmHg 59%
    06:00 +9°C° 0 mm 1 mps 653 mmHg 54%
    07:00 +10°C° 0 mm 1 mps 654 mmHg 50%
    08:00 +11°C° 0 mm 1 mps 655 mmHg 45%
    09:00 +14°C° 0 mm 1 mps 655 mmHg 39%
    10:00 +17°C° 0 mm 2 mps 656 mmHg 33%
    11:00 +19°C° 0 mm 2 mps 656 mmHg 27%
    12:00 +20°C° 0 mm 2 mps 656 mmHg 24%
    13:00 +21°C° 0 mm 2 mps 655 mmHg 21%
    14:00 +22°C° 0 mm 3 mps 655 mmHg 18%
    15:00 +21°C° 0 mm 2 mps 654 mmHg 19%
    16:00 +20°C° 0 mm 2 mps 654 mmHg 20%
    17:00 +20°C° 0 mm 2 mps 653 mmHg 21%
    18:00 +17°C° 0 mm 2 mps 653 mmHg 24%
    19:00 +15°C° 0 mm 2 mps 653 mmHg 27%
    20:00 +13°C° 0 mm 2 mps 653 mmHg 30%
    21:00 +13°C° 0 mm 2 mps 653 mmHg 32%
    22:00 +12°C° 0 mm 2 mps 653 mmHg 34%
    23:00 +11°C° 0 mm 1 mps 653 mmHg 36%

    9 June, Tuesday

    Time Temperature Precipitation Wind Pressure Humidity
    00:00 +11°C° 0 mm 1 mps 653 mmHg 38%
    01:00 +11°C° 0 mm 1 mps 652 mmHg 40%
    02:00 +10°C° 0 mm 1 mps 652 mmHg 43%
    03:00 +10°C° 0 mm 1 mps 652 mmHg 44%
    04:00 +9°C° 0 mm 2 mps 652 mmHg 45%
    05:00 +8°C° 0 mm 2 mps 652 mmHg 46%
    06:00 +9°C° 0 mm 2 mps 652 mmHg 45%
    07:00 +10°C° 0 mm 2 mps 653 mmHg 44%
    08:00 +10°C° 0 mm 2 mps 654 mmHg 42%
    09:00 +13°C° 0 mm 3 mps 654 mmHg 38%
    10:00 +17°C° 0 mm 4 mps 655 mmHg 34%
    11:00 +19°C° 0 mm 5 mps 655 mmHg 29%
    12:00 +20°C° 0 mm 5 mps 655 mmHg 27%
    13:00 +21°C° 0 mm 4 mps 654 mmHg 25%
    14:00 +22°C° 0 mm 4 mps 653 mmHg 23%
    15:00 +22°C° 0 mm 4 mps 653 mmHg 24%
    16:00 +21°C° 0 mm 3 mps 653 mmHg 24%
    17:00 +20°C° 0 mm 3 mps 652 mmHg 25%
    18:00 +18°C° 0 mm 3 mps 652 mmHg 29%
    19:00 +16°C° 0 mm 3 mps 652 mmHg 33%
    20:00 +14°C° 0 mm 2 mps 651 mmHg 37%
    21:00 +13°C° 0 mm 2 mps 651 mmHg 39%
    22:00 +12°C° 0 mm 2 mps 651 mmHg 42%
    23:00 +12°C° 0 mm 2 mps 651 mmHg 44%
    Show more